CW7563 Weather Reports


Display with metric or nautical units.
time (UTC)temp
F
wind
direction
speed
MPH
gust
MPH
rain 1hr
in
rain 24hr
in
rain mn
in
humidity
%
barometer
mb
20260504141305 53 166 3.0 10.0 0.00 0.00 0.00 90 1011.6
20260504140805 53 166 5.0 12.0 0.00 0.00 0.00 90 1011.5
20260504140306 53 221 5.0 12.0 0.00 0.00 0.00 90 1011.4
20260504130806 53 170 4.0 9.0 0.00 0.00 0.00 89 1010.6
20260504130305 53 179 3.0 9.0 0.00 0.00 0.00 89 1010.3
20260504120306 54 191 5.0 10.0 0.00 0.00 0.00 87 1009.4
20260504110305 56 194 6.0 12.0 0.00 0.00 0.00 82 1008.8
20260504100305 59 167 6.0 12.0 0.00 0.00 0.00 77 1008.1
20260504081305 65 148 3.0 3.0 0.00 0.00 0.00 63 1007.2
20260504080805 65 152 2.0 3.0 0.00 0.00 0.00 64 1007.1
20260504070305 71 238 1.0 2.0 0.00 0.00 0.00 52 1006.8
20260504050305 75 260 1.0 3.0 0.00 0.00 0.00 46 1006.2
20260504045805 75 260 1.0 3.0 0.00 0.00 0.00 45 1006.2
20260504044804 76 261 1.0 2.0 0.00 0.00 0.00 45 1006.1
20260504044305 76 261 1.0 3.0 0.00 0.00 0.00 44 1006.1
20260504043805 77 261 2.0 3.0 0.00 0.00 0.00 42 1006.1
20260504043305 78 261 1.0 2.0 0.00 0.00 0.00 41 1006.1
20260504042805 79 302 1.0 2.0 0.00 0.00 0.00 40 1006.0
20260504042305 79 302 2.0 3.0 0.00 0.00 0.00 39 1005.9
20260504041805 79 315 1.0 3.0 0.00 0.00 0.00 39 1005.9
20260504041305 80 285 1.0 3.0 0.00 0.00 0.00 38 1005.9
20260504040805 80 284 1.0 2.0 0.00 0.00 0.00 39 1005.7
20260504040305 80 283 2.0 3.0 0.00 0.00 0.00 38 1005.7
20260504034805 81 329 0.0 2.0 0.00 0.00 0.00 37 1005.4
20260504034305 82 328 1.0 2.0 0.00 0.00 0.00 36 1005.4
20260504033804 82 331 1.0 3.0 0.00 0.00 0.00 35 1005.3
20260504033304 83 331 2.0 5.0 0.00 0.00 0.00 35 1005.3
20260504032804 83 9 1.0 3.0 0.00 0.00 0.00 35 1005.3
20260504032304 84 6 2.0 3.0 0.00 0.00 0.00 33 1005.3
20260504031805 84 356 3.0 8.0 0.00 0.00 0.00 33 1005.3
20260504031304 84 359 3.0 7.0 0.00 0.00 0.00 33 1005.2
20260504030804 84 347 2.0 3.0 0.00 0.00 0.00 34 1005.2
20260504030305 85 5 1.0 3.0 0.00 0.00 0.00 33 1005.2
20260504025804 85 352 2.0 5.0 0.00 0.00 0.00 32 1005.2
20260504024805 86 14 3.0 7.0 0.00 0.00 0.00 31 1005.1
20260504023804 87 352 3.0 8.0 0.00 0.00 0.00 29 1005.0
20260504023304 87 350 3.0 6.0 0.00 0.00 0.00 29 1005.1
20260504022804 87 349 2.0 5.0 0.00 0.00 0.00 28 1005.1
20260504022307 88 354 3.0 5.0 0.00 0.00 0.00 28 1005.2
20260504021808 88 337 2.0 6.0 0.00 0.00 0.00 28 1005.1
20260504021306 88 355 3.0 5.0 0.00 0.00 0.00 27 1005.1
20260504020807 89 357 3.0 6.0 0.00 0.00 0.00 26 1005.2
20260504020307 89 326 3.0 6.0 0.00 0.00 0.00 25 1005.2
20260504015807 89 45 3.0 9.0 0.00 0.00 0.00 26 1005.3
20260504015307 89 354 5.0 9.0 0.00 0.00 0.00 25 1005.3
20260504014807 89 12 4.0 7.0 0.00 0.00 0.00 24 1005.4
20260504014307 89 2 2.0 8.0 0.00 0.00 0.00 24 1005.3
20260504013807 89 2 3.0 7.0 0.00 0.00 0.00 24 1005.4
20260504013307 90 333 4.0 6.0 0.00 0.00 0.00 24 1005.3
20260504012806 90 336 4.0 9.0 0.00 0.00 0.00 23 1005.4
20260504012306 90 286 5.0 8.0 0.00 0.00 0.00 23 1005.4
20260504011807 91 316 2.0 6.0 0.00 0.00 0.00 24 1005.4
20260504011307 90 63 3.0 5.0 0.00 0.00 0.00 24 1005.5
20260504010307 90 353 3.0 8.0 0.00 0.00 0.00 22 1005.6
20260504005807 90 344 4.0 9.0 0.00 0.00 0.00 22 1005.6
20260504005306 91 312 3.0 9.0 0.00 0.00 0.00 23 1005.6
20260504004807 91 321 2.0 6.0 0.00 0.00 0.00 24 1005.7
20260504004307 91 345 3.0 6.0 0.00 0.00 0.00 21 1005.7
20260504003807 91 304 5.0 12.0 0.00 0.00 0.00 22 1005.7
20260504003307 90 354 4.0 8.0 0.00 0.00 0.00 21 1005.7
20260504002807 91 355 3.0 7.0 0.00 0.00 0.00 21 1005.8
20260504002307 91 326 3.0 8.0 0.00 0.00 0.00 21 1005.8
20260504000806 91 320 3.0 8.0 0.00 0.00 0.00 21 1005.8
20260504000307 92 66 3.0 10.0 0.00 0.00 0.00 21 1005.7
20260503235808 91 55 5.0 9.0 0.00 0.00 0.00 20 1005.7
20260503235307 91 295 4.0 9.0 0.00 0.00 0.00 21 1005.7
20260503234807 91 296 3.0 7.0 0.00 0.00 0.00 22 1005.8
20260503234307 91 10 7.0 12.0 0.00 0.00 0.00 21 1005.8
20260503233807 92 355 3.0 9.0 0.00 0.00 0.00 22 1005.9
20260503233307 91 65 5.0 10.0 0.00 0.00 0.00 21 1005.9
20260503232307 91 304 5.0 9.0 0.00 0.00 0.00 21 1006.1
20260503231307 91 305 6.0 9.0 0.00 0.00 0.00 21 1006.2
20260503230807 91 321 2.0 5.0 0.00 0.00 0.00 22 1006.3
20260503230306 91 351 6.0 12.0 0.00 0.00 0.00 22 1006.3
20260503225806 91 0 6.0 9.0 0.00 0.00 0.00 23 1006.4
20260503225307 90 17 5.0 12.0 0.00 0.00 0.00 23 1006.5
20260503224806 90 357 4.0 8.0 0.00 0.00 0.00 23 1006.6
20260503224306 91 339 4.0 8.0 0.00 0.00 0.00 24 1006.7
20260503223306 91 306 4.0 10.0 0.00 0.00 0.00 24 1006.9
20260503222806 90 7 5.0 13.0 0.00 0.00 0.00 24 1006.8
20260503222307 91 8 5.0 10.0 0.00 0.00 0.00 24 1007.0
20260503221806 90 314 3.0 10.0 0.00 0.00 0.00 27 1007.1
20260503221306 91 25 3.0 9.0 0.00 0.00 0.00 26 1007.2
20260503220807 91 352 3.0 6.0 0.00 0.00 0.00 27 1007.2
20260503220307 90 48 3.0 9.0 0.00 0.00 0.00 27 1007.2
20260503215806 90 12 3.0 6.0 0.00 0.00 0.00 28 1007.4
20260503215306 90 45 3.0 9.0 0.00 0.00 0.00 27 1007.6
20260503214807 90 325 5.0 10.0 0.00 0.00 0.00 26 1007.6
20260503214307 90 59 2.0 7.0 0.00 0.00 0.00 27 1007.6
20260503213807 89 32 3.0 9.0 0.00 0.00 0.00 27 1007.7
20260503213306 89 68 5.0 8.0 0.00 0.00 0.00 29 1007.7
20260503212807 89 56 2.0 5.0 0.00 0.00 0.00 29 1007.8
20260503212306 89 75 2.0 9.0 0.00 0.00 0.00 30 1007.9
20260503211806 88 357 5.0 10.0 0.00 0.00 0.00 29 1007.9
20260503211306 88 56 4.0 9.0 0.00 0.00 0.00 30 1007.9
20260503210307 88 96 3.0 6.0 0.00 0.00 0.00 30 1008.1
20260503205807 88 25 3.0 9.0 0.00 0.00 0.00 30 1008.2
20260503205307 88 55 2.0 6.0 0.00 0.00 0.00 33 1008.2
20260503204807 87 56 3.0 9.0 0.00 0.00 0.00 32 1008.3
20260503204306 88 34 2.0 6.0 0.00 0.00 0.00 32 1008.4
20260503203806 87 59 2.0 6.0 0.00 0.00 0.00 33 1008.5
20260503203306 86 23 3.0 8.0 0.00 0.00 0.00 33 1008.5
20260503202806 86 41 4.0 7.0 0.00 0.00 0.00 34 1008.6
20260503201806 86 43 2.0 7.0 0.00 0.00 0.00 35 1008.7
20260503201307 85 54 3.0 7.0 0.00 0.00 0.00 37 1008.8
20260503200806 85 1 5.0 8.0 0.00 0.00 0.00 34 1008.8
20260503195306 84 349 5.0 9.0 0.00 0.00 0.00 37 1009.0
20260503194806 84 348 3.0 8.0 0.00 0.00 0.00 38 1009.0
20260503193806 83 14 2.0 3.0 0.00 0.00 0.00 39 1009.0
20260503193306 83 348 2.0 5.0 0.00 0.00 0.00 37 1009.2
20260503192806 83 38 1.0 5.0 0.00 0.00 0.00 41 1009.3
20260503192307 83 102 2.0 3.0 0.00 0.00 0.00 40 1009.4
20260503191806 82 50 2.0 3.0 0.00 0.00 0.00 41 1009.4
20260503190806 82 55 1.0 3.0 0.00 0.00 0.00 43 1009.5
20260503190306 81 86 2.0 5.0 0.00 0.00 0.00 43 1009.7
20260503185806 81 66 2.0 5.0 0.00 0.00 0.00 44 1009.7
20260503185306 80 45 3.0 5.0 0.00 0.00 0.00 45 1009.9
20260503184806 79 23 3.0 5.0 0.00 0.00 0.00 46 1009.9
20260503184306 79 6 3.0 6.0 0.00 0.00 0.00 45 1009.9
20260503183806 79 53 4.0 9.0 0.00 0.00 0.00 47 1010.0
20260503182806 78 71 2.0 5.0 0.00 0.00 0.00 48 1010.1
20260503182306 77 51 2.0 9.0 0.00 0.00 0.00 49 1010.1
20260503181806 76 44 3.0 5.0 0.00 0.00 0.00 49 1010.2
20260503181307 77 134 2.0 6.0 0.00 0.00 0.00 49 1010.2
20260503180806 76 68 2.0 5.0 0.00 0.00 0.00 50 1010.2
20260503180306 76 43 2.0 5.0 0.00 0.00 0.00 50 1010.3
20260503175806 76 40 3.0 8.0 0.00 0.00 0.00 51 1010.3
20260503175306 76 76 3.0 10.0 0.00 0.00 0.00 51 1010.3
20260503174806 75 28 3.0 9.0 0.00 0.00 0.00 52 1010.4
20260503174306 74 38 2.0 5.0 0.00 0.00 0.00 52 1010.4
20260503173806 75 46 2.0 7.0 0.00 0.00 0.00 53 1010.4
20260503173306 74 94 2.0 6.0 0.00 0.00 0.00 54 1010.5
20260503172806 74 84 3.0 6.0 0.00 0.00 0.00 53 1010.5
20260503172306 73 83 4.0 8.0 0.00 0.00 0.00 53 1010.5
20260503171806 73 68 3.0 7.0 0.00 0.00 0.00 54 1010.6
20260503171305 73 62 3.0 8.0 0.00 0.00 0.00 54 1010.6
20260503170806 73 47 3.0 10.0 0.00 0.00 0.00 55 1010.8
20260503170306 73 26 3.0 8.0 0.00 0.00 0.00 57 1010.7
20260503150306 60 341 2.0 3.0 0.00 0.00 0.00 86 1011.2